loading
|
Showing default

GHOST-5, 59130

Orbit data source: Space-Track

GHOST-5, 59130 is a payload satellite owned by Orbital Sidekick (US) in SSO that was launched on Mon, 04 Mar 2024 UTC via an FALCON 9 launch vehicle from the Air Force Western Test Range (AFWTR). Payloads include a variety of satellites, spacecraft, and rockets equipped with specific instruments for various scientific and technological missions. These include communications satellites like Starlink; space stations such as the ISS; scientific satellites like the Hubble; Earth observation satellites from companies like Planet Labs, Umbra, and HawkEye 360; GPS; miniature CubeSats for education and research; and military/defense satellites.

Loading next visibility...
Loading greatness...
GHOST-5 details
Identifier
59130, 2024-043AJ
Orbit
SSO
Last TLE update8 hours ago
Origin
Flag of USOrbital Sidekick (US)
ManufacturerAstro Digital
Mission statusOperational
MissionCommercial Imaging
Bus & MotorCORVUS-XL, Unknown motor
Mass85 kg wet, 85 kg dry
Launch date (UTC)
2024-03-04 (7 months ago)
Launch vehicle
FALCON 9
Launch site
Air Force Western Test Range (AFWTR)
Object type
Payload
Rocket body
Debris
Radar Cross SectionLarge (>1 m²)

Expand to show TLE details & history

TLE from 8 hours ago
0 GHOST-5
1 59130U 24043AJ  24261.60755927  .00041237  00000-0  18101-2 0  9997
2 59130  97.4851  24.7214 0010869 324.7716  35.2800 15.21769261 29850
Epoch: 2024-09-17T14:34Z
Definitive object data (Epoch: 2024-09-17T14:34:53.12Z)
Latitude-0.00009°
Longitude168.98029°
Altitude497.492 km
Speed7.619 km/s
True Right ascension01h 38m 53s
True Declination0° 00' 00"
Sunlit
Object was in full shadow at TLE epoch
Predictive object data (real-time)
Latitude74.97461°
Longitude18.45571°
Altitude518.938 km
Speed7.608 km/s
Apparent Right ascension03h 48m 46s
Apparent Declination39° 34' 43"
Sunlit
Object is in daylight
Predictive observer data (real-time)
Local Sidereal Time15:44:23
Azimuth359.141° N
Elevation-10.499°
Doppler factor1
Orbital elements
Apogee504.944 km
Perigee489.998 km
Semi-major axis6,875.608 km
Eccentricity0.0010869
Inclination97.4851°
RAAN24.7214°
Arg. of periapsis324.7716°
True anomaly35.35202°
Mean anomaly35.28°
Eccentric anomaly35.316°
Mean motion3.80694 °/min
BSTAR0.0018101
Period94.56 mins
No data available

GHOST-5 Visibility forecast

Observer location: 39.9160978°, -105.1181434

GHOST-5 is not visible in the next 10 days
Span
Click to sort rows by Start time (UTC) header in descending order
Start Az.
Max El. time (UTC)
Max El. Az.
Max El.
End time (UTC)
End Az.